Location: Asheville, NC
(35.6000°N, 82.5500°W)
Time: 15:31:20
(UTC-04:00)

N. Korean satellite - Pass Details

Date: 14 March 2018
Orbit: 459 x 511 km, 97.2° (Epoch: 24 June)

Event Time Altitude Azimuth Distance (km) Brightness Sun altitude
Rises 07:08:30 0° 33° (NNE) 2,627 10.8 -7.7°
Reaches altitude 10° 07:11:22 10° 57° (ENE) 1,733 10.4 -7.1°
Maximum altitude 07:13:33 15° 93° (E) 1,445 10.5 -6.7°
Drops below altitude 10° 07:15:43 10° 129° (SE) 1,717 10.2 -6.2°
Sets 07:18:32 0° 154° (SSE) 2,588 10.6 -5.7°
